STARLINK-11734, 64329

Orbit data source: Space-Track

STARLINK-11734, 64329 is a payload satellite owned by SpaceX/Seattle (US) in LEO that was launched on Tue, 10 Jun 2025 UTC via an FALCON 9 launch vehicle from the Air Force Eastern Test Range (AFETR). Payload-class satellites include a variety of spacecraft equipped with specific instruments for various scientific and technological missions. These include communications satellites like Starlink; space stations such as the ISS; scientific satellites like the Hubble; Earth observation satellites from companies like Planet Labs, Umbra, and HawkEye 360; GPS; miniature CubeSats for education and research; and military/defense satellites.

Loading next visibility...
Identifier
64329, 2025-124N
Orbit
LEO
Last TLE update
11 hours ago
Origin
Manufacturer
SpaceX/Seattle
Mission
Operational spacecraft
Bus & Motor
STARLINK V2M, Unknown motor
Mass
730 kg wet, ~700 kg dry
Launch date (UTC)
2025-06-10 (1 month ago)
Launch vehicle
FALCON 9
Launch site
Air Force Eastern Test Range (AFETR)
Object type
Payload
Rocket body
Debris
Shape & HBR
Unknown
Radar Cross Section
Large (>1 m²)

Expand to show TLE details & history

TLE from 11 hours ago
0 STARLINK-11734
1 64329U 25124N   25199.92106446  .00195687  00000-0  14885-2 0  9990
2 64329  42.9998 357.8575 0002318 282.6631  77.3977 15.70909566  7093
Epoch: 2025-07-18T22:06Z
TLE epoch observation values (Epoch: 2025-07-18T22:06:19.969Z)
Latitude
-0.00004°
Longitude
89.30866°
Altitude
355.727 km
Speed
7.698 km/s
True Right ascension
23h 51m 25s
True Declination
0° 00' 00"
Sunlit
Object was in full shadow at epoch
Visualization orbit readout
Latitude
35.68647°
Longitude
-143.48983°
Altitude
358.833 km
Speed
7.698 km/s
Apparent Right ascension
09h 10m 43s
Apparent Declination
0° 54' 60"
Sunlit
Object is in daylight
Visualization observer readout
Local Sidereal Time
22:07:17
Azimuth
21.832° NNE
Elevation
-48.93°
Doppler factor
1
Orbital elements
Apogee altitude
359.839 km
Perigee altitude
356.716 km
Semi-major axis
6,736.415 km
Eccentricity
0.00023
Inclination
42.9998°
RAAN
357.8575°
Arg. of periapsis
282.6631°
True anomaly
77.42362°
Mean anomaly
77.3977°
Eccentric anomaly
77.41066°
Mean motion
3.92554 °/min
Orbital period
91.71 mins
BSTAR
0.0014885
Loading maneuver chart data...
Loading SW <> Apogee altitude chart data...
Loading historical data...
Loading historical data...
Loading historical data...
Loading historical data...
Loading historical data...
Loading historical data...
Loading historical data...
|